QPF
0.02 0.02 0.03 0.03 0.04 0.04 0.05 0.04 0.04 0.03 0.03 0.04 0.05 0.05 0.03 0.02 0.02 0.02 0.03 0.02 0.02 0.02 0.02 0.01 0.01 0.01 0.01 0.02 0.01 0.01 0.05 0.12 0.13 0.10 0.06 0.06 0.07 0.09
0.02 0.02 0.03 0.03 0.03 0.04 0.04 0.05 0.05 0.05 0.04 0.04 0.04 0.04 0.03 0.03 0.03 0.02 0.02 0.02 0.02 0.02 0.01 0.01 0.01 0.01 0.01 0.01 0.01 0.01 0.02 0.06 0.09 0.10 0.07 0.05 0.06 0.07
0.02 0.02 0.03 0.03 0.03 0.03 0.04 0.04 0.04 0.05 0.05 0.04 0.04 0.04 0.04 0.03 0.02 0.02 0.02 0.02 0.02 0.02 0.02 0.01 0.01 0.01 0.01 0.01 0.01 0.01 0.01 0.02 0.04 0.07 0.08 0.07 0.06 0.06
0.03 0.03 0.03 0.02 0.03 0.03 0.03 0.03 0.03 0.03 0.04 0.03 0.04 0.05 0.04 0.03 0.02 0.01 0.01 0.01 0.01 0.02 0.02 0.01 0.01 0.01 0.01 0.01 0.01 0.01 0.01 0.01 0.01 0.02 0.04 0.06 0.06 0.05
0.02 0.02 0.02 0.02 0.03 0.03 0.03 0.03 0.02 0.03 0.03 0.03 0.03 0.03 0.03 0.03 0.03 0.03 0.03 0.02 0.01 0.01 0.01 0.01 0.01 0.01 0.01 0.01 0.01 0.01 0.01 0.01 0.01 0.01 0.02 0.04 0.04 0.04
0.02 0.02 0.02 0.02 0.03 0.03 0.04 0.04 0.03 0.03 0.03 0.03 0.03 0.03 0.02 0.02 0.02 0.03 0.03 0.02 0.02 0.02 0.03 0.03 0.03 0.02 0.02 0.01 0.01 0.02 0.02 0.02 0.02 0.02 0.02 0.02 0.02 0.02
0.03 0.03 0.03 0.03 0.02 0.02 0.02 0.03 0.03 0.03 0.03 0.03 0.04 0.03 0.03 0.02 0.02 0.02 0.02 0.03 0.03 0.03 0.03 0.04 0.04 0.05 0.04 0.03 0.02 0.02 0.02 0.02 0.03 0.03 0.03 0.02 0.02 0.02
0.06 0.05 0.04 0.04 0.03 0.02 0.02 0.02 0.03 0.03 0.03 0.04 0.05 0.05 0.05 0.05 0.05 0.04 0.03 0.03 0.03 0.03 0.04 0.05 0.04 0.05 0.05 0.05 0.04 0.04 0.04 0.03 0.03 0.03 0.03 0.02 0.02 0.02
0.08 0.08 0.06 0.03 0.02 0.02 0.03 0.03 0.03 0.04 0.05 0.06 0.07 0.08 0.08 0.06 0.05 0.04 0.03 0.03 0.03 0.03 0.04 0.04 0.04 0.05 0.05 0.05 0.05 0.06 0.06 0.06 0.06 0.05 0.04 0.04 0.04 0.03
0.05 0.06 0.06 0.04 0.03 0.04 0.05 0.05 0.05 0.05 0.05 0.04 0.04 0.04 0.04 0.04 0.03 0.03 0.03 0.04 0.04 0.04 0.04 0.05 0.05 0.05 0.05 0.05 0.06 0.06 0.07 0.09 0.10 0.09 0.08 0.09 0.08 0.05
0.03 0.04 0.05 0.05 0.04 0.04 0.04 0.04 0.04 0.03 0.03 0.03 0.03 0.03 0.02 0.03 0.03 0.03 0.03 0.04 0.04 0.05 0.05 0.05 0.06 0.06 0.06 0.06 0.06 0.06 0.05 0.06 0.10 0.12 0.11 0.12 0.10 0.05
0.04 0.04 0.05 0.04 0.02 0.01 0.02 0.02 0.03 0.03 0.02 0.02 0.02 0.02 0.02 0.03 0.03 0.03 0.03 0.03 0.03 0.04 0.05 0.05 0.07 0.08 0.07 0.06 0.05 0.05 0.05 0.06 0.07 0.07 0.08 0.08 0.07 0.04
0.03 0.03 0.03 0.02 0.02 0.01 0.01 0.02 0.02 0.02 0.03 0.03 0.02 0.02 0.02 0.02 0.03 0.03 0.02 0.02 0.02 0.03 0.03 0.05 0.06 0.06 0.07 0.05 0.04 0.04 0.04 0.06 0.06 0.06 0.05 0.04 0.04 0.03
0.03 0.03 0.03 0.02 0.02 0.02 0.03 0.02 0.02 0.02 0.02 0.02 0.02 0.03 0.03 0.03 0.03 0.03 0.02 0.02 0.02 0.03 0.03 0.03 0.04 0.06 0.06 0.05 0.04 0.04 0.04 0.05 0.05 0.05 0.05 0.03 0.02 0.01
0.02 0.02 0.03 0.03 0.03 0.03 0.03 0.04 0.03 0.02 0.02 0.02 0.02 0.03 0.03 0.05 0.05 0.04 0.03 0.03 0.03 0.03 0.03 0.03 0.03 0.05 0.06 0.05 0.05 0.04 0.04 0.04 0.05 0.03 0.03 0.03 0.01 0.01
0.02 0.01 0.03 0.03 0.02 0.03 0.03 0.03 0.03 0.03 0.02 0.02 0.03 0.03 0.03 0.04 0.05 0.05 0.04 0.03 0.04 0.04 0.03 0.02 0.03 0.05 0.06 0.05 0.04 0.03 0.03 0.03 0.03 0.03 0.03 0.02 0.02 0.01
0.02 0.02 0.02 0.02 0.01 0.01 0.02 0.03 0.03 0.03 0.02 0.02 0.03 0.03 0.04 0.04 0.04 0.05 0.06 0.04 0.04 0.04 0.05 0.05 0.04 0.04 0.05 0.05 0.04 0.03 0.02 0.02 0.02 0.03 0.03 0.03 0.02 0.02
0.04 0.03 0.02 0.02 0.02 0.01 0.01 0.02 0.02 0.02 0.02 0.03 0.04 0.06 0.07 0.06 0.05 0.05 0.05 0.05 0.05 0.06 0.08 0.06 0.05 0.04 0.04 0.05 0.04 0.03 0.03 0.02 0.02 0.03 0.03 0.02 0.03 0.02
0.03 0.03 0.02 0.02 0.02 0.02 0.02 0.02 0.02 0.03 0.04 0.04 0.05 0.09 0.11 0.10 0.07 0.07 0.06 0.05 0.04 0.06 0.09 0.07 0.05 0.05 0.05 0.04 0.04 0.04 0.03 0.03 0.02 0.03 0.03 0.03 0.03 0.02
0.03 0.03 0.02 0.02 0.01 0.01 0.01 0.01 0.02 0.03 0.03 0.03 0.04 0.05 0.08 0.07 0.06 0.04 0.05 0.05 0.04 0.04 0.05 0.04 0.04 0.04 0.04 0.04 0.04 0.04 0.03 0.02 0.03 0.03 0.04 0.04 0.03 0.03
0.03 0.03 0.03 0.02 0.02 0.02 0.02 0.02 0.02 0.02 0.02 0.02 0.02 0.01 0.01 0.01 0.02 0.02 0.02 0.02 0.03 0.03 0.03 0.04 0.04 0.04 0.04 0.04 0.04 0.05 0.05 0.05 0.03 0.03 0.04 0.04 0.03 0.03
0.03 0.03 0.03 0.03 0.02 0.02 0.02 0.03 0.02 0.01 0.01 0.02 0.02 0.01 0.01 0.01 0.01 0.01 0.01 0.01 0.01 0.02 0.02 0.04 0.04 0.04 0.04 0.05 0.05 0.06 0.06 0.07 0.06 0.06 0.06 0.06 0.04 0.04
0.03 0.03 0.03 0.03 0.02 0.02 0.02 0.02 0.02 0.02 0.02 0.02 0.02 0.02 0.02 0.02 0.01 0.01 0.01 0.01 0.01 0.01 0.02 0.03 0.03 0.04 0.06 0.06 0.05 0.05 0.05 0.05 0.06 0.07 0.06 0.05 0.05 0.04
MSLP
1014.24 1014.32 1014.37 1014.40 1014.40 1014.36 1014.29 1014.19 1014.06 1013.92 1013.77 1013.64 1013.52 1013.44 1013.38 1013.36 1013.37 1013.41 1013.47 1013.53 1013.61 1013.69 1013.78 1013.86 1013.95 1014.03 1014.11 1014.17 1014.21 1014.22 1014.19 1014.12 1014.00 1013.85 1013.66 1013.46 1013.24 1013.03
1013.61 1013.68 1013.74 1013.78 1013.80 1013.80 1013.79 1013.76 1013.71 1013.65 1013.59 1013.52 1013.46 1013.41 1013.38 1013.36 1013.36 1013.38 1013.42 1013.48 1013.55 1013.65 1013.76 1013.88 1014.02 1014.16 1014.29 1014.41 1014.50 1014.56 1014.55 1014.50 1014.38 1014.21 1013.99 1013.73 1013.46 1013.18
1012.89 1012.99 1013.08 1013.16 1013.23 1013.30 1013.36 1013.41 1013.45 1013.48 1013.49 1013.50 1013.49 1013.48 1013.46 1013.45 1013.44 1013.44 1013.46 1013.49 1013.55 1013.64 1013.76 1013.90 1014.07 1014.25 1014.43 1014.61 1014.75 1014.85 1014.89 1014.85 1014.75 1014.57 1014.32 1014.03 1013.70 1013.36
1012.16 1012.32 1012.48 1012.63 1012.78 1012.93 1013.08 1013.22 1013.34 1013.45 1013.54 1013.60 1013.65 1013.66 1013.67 1013.65 1013.63 1013.61 1013.60 1013.60 1013.63 1013.70 1013.80 1013.93 1014.10 1014.30 1014.51 1014.71 1014.90 1015.04 1015.12 1015.12 1015.04 1014.87 1014.62 1014.30 1013.93 1013.53
1011.48 1011.73 1011.98 1012.23 1012.48 1012.73 1012.96 1013.18 1013.38 1013.56 1013.71 1013.82 1013.90 1013.95 1013.97 1013.95 1013.92 1013.88 1013.83 1013.80 1013.78 1013.80 1013.86 1013.95 1014.10 1014.28 1014.48 1014.70 1014.91 1015.08 1015.20 1015.24 1015.19 1015.04 1014.80 1014.47 1014.08 1013.65
1010.88 1011.25 1011.61 1011.98 1012.33 1012.66 1012.98 1013.26 1013.52 1013.75 1013.93 1014.08 1014.19 1014.26 1014.29 1014.28 1014.24 1014.18 1014.11 1014.03 1013.97 1013.92 1013.92 1013.95 1014.04 1014.17 1014.35 1014.55 1014.76 1014.94 1015.09 1015.16 1015.14 1015.03 1014.81 1014.49 1014.09 1013.63
1010.36 1010.85 1011.34 1011.81 1012.26 1012.67 1013.04 1013.37 1013.66 1013.90 1014.11 1014.28 1014.40 1014.49 1014.53 1014.54 1014.51 1014.44 1014.35 1014.24 1014.13 1014.03 1013.95 1013.91 1013.92 1013.99 1014.11 1014.26 1014.44 1014.62 1014.77 1014.87 1014.88 1014.79 1014.60 1014.30 1013.91 1013.45
1009.91 1010.52 1011.11 1011.67 1012.19 1012.65 1013.05 1013.39 1013.69 1013.93 1014.14 1014.31 1014.45 1014.55 1014.62 1014.66 1014.65 1014.60 1014.51 1014.39 1014.25 1014.09 1013.95 1013.84 1013.77 1013.75 1013.79 1013.89 1014.02 1014.16 1014.29 1014.39 1014.41 1014.34 1014.17 1013.89 1013.51 1013.05
1009.48 1010.19 1010.87 1011.49 1012.05 1012.53 1012.93 1013.26 1013.54 1013.77 1013.96 1014.13 1014.28 1014.41 1014.52 1014.60 1014.63 1014.62 1014.56 1014.45 1014.29 1014.11 1013.92 1013.75 1013.60 1013.50 1013.46 1013.47 1013.53 1013.62 1013.70 1013.77 1013.77 1013.70 1013.53 1013.26 1012.89 1012.44
1009.06 1009.84 1010.57 1011.22 1011.78 1012.26 1012.64 1012.94 1013.19 1013.40 1013.58 1013.76 1013.93 1014.10 1014.25 1014.38 1014.48 1014.53 1014.51 1014.44 1014.30 1014.11 1013.90 1013.68 1013.47 1013.30 1013.17 1013.09 1013.06 1013.07 1013.08 1013.08 1013.04 1012.93 1012.74 1012.46 1012.10 1011.65
1008.65 1009.45 1010.19 1010.85 1011.40 1011.85 1012.20 1012.48 1012.71 1012.90 1013.08 1013.27 1013.47 1013.69 1013.90 1014.10 1014.26 1014.37 1014.42 1014.39 1014.29 1014.12 1013.90 1013.66 1013.41 1013.17 1012.97 1012.80 1012.68 1012.58 1012.50 1012.41 1012.29 1012.12 1011.88 1011.57 1011.18 1010.74
1008.24 1009.04 1009.77 1010.40 1010.93 1011.35 1011.69 1011.95 1012.17 1012.37 1012.57 1012.79 1013.03 1013.30 1013.57 1013.83 1014.06 1014.23 1014.34 1014.36 1014.30 1014.16 1013.95 1013.70 1013.42 1013.14 1012.87 1012.62 1012.40 1012.19 1012.00 1011.80 1011.57 1011.31 1011.01 1010.65 1010.24 1009.78
1007.87 1008.63 1009.33 1009.93 1010.44 1010.84 1011.18 1011.45 1011.69 1011.92 1012.16 1012.42 1012.71 1013.02 1013.34 1013.65 1013.93 1014.15 1014.30 1014.36 1014.32 1014.21 1014.01 1013.76 1013.47 1013.16 1012.83 1012.51 1012.20 1011.89 1011.58 1011.26 1010.92 1010.56 1010.17 1009.76 1009.31 1008.86
1007.54 1008.25 1008.90 1009.47 1009.97 1010.38 1010.73 1011.04 1011.33 1011.61 1011.90 1012.22 1012.56 1012.92 1013.27 1013.60 1013.90 1014.13 1014.29 1014.36 1014.34 1014.23 1014.04 1013.79 1013.49 1013.15 1012.79 1012.41 1012.01 1011.61 1011.19 1010.76 1010.32 1009.87 1009.40 1008.93 1008.46 1008.00
1007.25 1007.90 1008.51 1009.06 1009.55 1009.99 1010.39 1010.75 1011.11 1011.46 1011.83 1012.20 1012.58 1012.96 1013.32 1013.65 1013.92 1014.13 1014.26 1014.31 1014.27 1014.15 1013.96 1013.70 1013.40 1013.04 1012.65 1012.22 1011.77 1011.29 1010.79 1010.27 1009.74 1009.21 1008.68 1008.18 1007.69 1007.24
1006.98 1007.57 1008.14 1008.68 1009.19 1009.67 1010.13 1010.57 1011.01 1011.45 1011.88 1012.30 1012.71 1013.09 1013.43 1013.71 1013.94 1014.09 1014.16 1014.15 1014.07 1013.92 1013.70 1013.43 1013.10 1012.74 1012.33 1011.87 1011.38 1010.85 1010.29 1009.72 1009.13 1008.55 1007.99 1007.47 1006.99 1006.57
1006.70 1007.24 1007.78 1008.32 1008.86 1009.39 1009.92 1010.45 1010.97 1011.47 1011.96 1012.42 1012.84 1013.20 1013.50 1013.72 1013.86 1013.93 1013.92 1013.83 1013.68 1013.47 1013.22 1012.92 1012.59 1012.21 1011.79 1011.32 1010.81 1010.26 1009.68 1009.08 1008.47 1007.87 1007.30 1006.78 1006.33 1005.93
1006.38 1006.89 1007.42 1007.97 1008.54 1009.12 1009.72 1010.32 1010.91 1011.47 1012.00 1012.48 1012.88 1013.21 1013.45 1013.59 1013.65 1013.61 1013.51 1013.33 1013.11 1012.84 1012.55 1012.22 1011.86 1011.48 1011.05 1010.59 1010.08 1009.53 1008.95 1008.35 1007.74 1007.15 1006.60 1006.10 1005.67 1005.31
1006.03 1006.52 1007.05 1007.62 1008.22 1008.85 1009.50 1010.15 1010.79 1011.39 1011.93 1012.41 1012.79 1013.07 1013.24 1013.31 1013.28 1013.16 1012.96 1012.71 1012.42 1012.10 1011.76 1011.40 1011.03 1010.64 1010.22 1009.76 1009.27 1008.73 1008.16 1007.58 1006.99 1006.42 1005.89 1005.41 1005.00 1004.66
1005.67 1006.17 1006.71 1007.29 1007.92 1008.58 1009.27 1009.95 1010.60 1011.21 1011.75 1012.21 1012.56 1012.79 1012.90 1012.91 1012.81 1012.62 1012.36 1012.05 1011.71 1011.35 1010.98 1010.60 1010.22 1009.82 1009.41 1008.96 1008.48 1007.97 1007.42 1006.86 1006.29 1005.74 1005.22 1004.76 1004.35 1004.01
1005.36 1005.86 1006.42 1007.03 1007.68 1008.36 1009.05 1009.73 1010.38 1010.98 1011.50 1011.92 1012.23 1012.42 1012.49 1012.44 1012.30 1012.07 1011.78 1011.44 1011.08 1010.70 1010.32 1009.94 1009.55 1009.16 1008.75 1008.31 1007.85 1007.35 1006.82 1006.28 1005.73 1005.19 1004.67 1004.20 1003.77 1003.39
1005.13 1005.66 1006.24 1006.87 1007.53 1008.21 1008.90 1009.56 1010.18 1010.75 1011.22 1011.60 1011.87 1012.02 1012.06 1012.00 1011.84 1011.60 1011.31 1010.98 1010.62 1010.25 1009.87 1009.49 1009.12 1008.73 1008.33 1007.91 1007.45 1006.97 1006.46 1005.93 1005.38 1004.84 1004.30 1003.79 1003.32 1002.87
1005.03 1005.60 1006.20 1006.85 1007.51 1008.18 1008.85 1009.48 1010.05 1010.56 1010.99 1011.32 1011.55 1011.68 1011.70 1011.63 1011.48 1011.26 1010.99 1010.69 1010.36 1010.01 1009.66 1009.31 1008.95 1008.58 1008.19 1007.78 1007.34 1006.88 1006.38 1005.85 1005.30 1004.74 1004.18 1003.62 1003.07 1002.54
Thickness
5744 5743 5741 5742 5740 5739 5736 5733 5728 5725 5727 5729 5729 5728 5725 5723 5719 5717 5715 5712 5709 5707 5706 5705 5705 5704 5705 5704 5704 5704 5704 5705 5705 5705 5705 5705 5705 5705
5738 5736 5735 5737 5736 5734 5732 5730 5727 5722 5721 5725 5723 5722 5719 5718 5714 5712 5711 5708 5705 5702 5700 5699 5698 5698 5698 5697 5697 5697 5698 5698 5699 5699 5699 5699 5700 5700
5733 5732 5729 5728 5729 5729 5728 5725 5723 5719 5714 5717 5718 5716 5712 5710 5709 5708 5707 5704 5702 5698 5695 5693 5692 5691 5691 5691 5690 5690 5691 5691 5692 5692 5692 5693 5694 5695
5727 5725 5724 5724 5721 5721 5720 5719 5717 5714 5711 5707 5709 5708 5706 5704 5702 5701 5703 5701 5700 5694 5691 5688 5687 5685 5685 5684 5684 5684 5684 5684 5685 5685 5686 5687 5687 5688
5721 5719 5717 5716 5714 5714 5712 5712 5711 5710 5707 5703 5702 5702 5701 5699 5696 5696 5696 5693 5695 5692 5688 5685 5682 5680 5679 5678 5678 5677 5677 5678 5678 5678 5679 5679 5680 5681
5715 5713 5711 5709 5707 5706 5705 5703 5702 5700 5699 5697 5696 5695 5694 5692 5690 5689 5688 5687 5686 5687 5684 5682 5679 5676 5675 5674 5673 5672 5671 5671 5671 5671 5671 5672 5672 5673
5708 5706 5704 5701 5698 5697 5697 5695 5694 5692 5691 5690 5688 5688 5687 5684 5683 5683 5680 5680 5680 5679 5677 5677 5676 5675 5673 5670 5668 5666 5666 5665 5664 5664 5664 5664 5664 5665
5699 5698 5697 5695 5691 5688 5686 5684 5683 5682 5681 5680 5680 5678 5676 5677 5676 5675 5674 5672 5670 5672 5669 5669 5670 5669 5669 5668 5663 5661 5659 5658 5657 5657 5656 5656 5657 5657
5692 5691 5692 5691 5686 5685 5682 5678 5676 5674 5672 5671 5671 5670 5671 5670 5668 5668 5666 5665 5663 5664 5662 5662 5663 5661 5662 5661 5657 5654 5652 5651 5650 5649 5649 5649 5649 5649
5686 5685 5684 5681 5680 5676 5675 5674 5673 5671 5668 5666 5665 5665 5665 5663 5661 5661 5660 5660 5659 5658 5656 5655 5656 5655 5656 5654 5649 5648 5646 5645 5643 5642 5642 5641 5641 5642
5678 5677 5675 5672 5667 5665 5666 5665 5663 5663 5660 5657 5656 5655 5654 5653 5652 5654 5653 5653 5653 5653 5651 5649 5649 5648 5648 5647 5644 5641 5640 5638 5637 5636 5635 5634 5634 5634
5671 5669 5664 5661 5657 5655 5657 5656 5654 5654 5654 5652 5649 5648 5648 5648 5646 5645 5646 5646 5646 5645 5645 5641 5641 5641 5640 5641 5640 5637 5635 5632 5631 5630 5628 5627 5627 5628
5663 5662 5659 5652 5648 5646 5646 5647 5644 5644 5645 5645 5645 5645 5644 5643 5642 5640 5639 5639 5638 5638 5638 5634 5634 5633 5632 5632 5632 5632 5631 5629 5626 5624 5623 5621 5620 5621
5654 5654 5650 5642 5639 5637 5637 5637 5635 5634 5638 5639 5638 5638 5637 5636 5635 5633 5631 5631 5630 5629 5627 5626 5625 5624 5624 5624 5625 5624 5623 5622 5621 5619 5618 5615 5614 5614
5645 5641 5637 5633 5631 5631 5629 5628 5628 5630 5631 5631 5630 5630 5629 5628 5628 5626 5625 5623 5622 5622 5621 5618 5617 5617 5617 5617 5618 5617 5615 5614 5613 5612 5612 5611 5611 5610
5636 5632 5628 5626 5625 5624 5625 5624 5624 5625 5624 5623 5623 5623 5622 5621 5620 5620 5619 5618 5617 5616 5613 5611 5609 5609 5609 5609 5609 5609 5609 5607 5606 5605 5605 5605 5605 5606
5627 5627 5626 5625 5624 5623 5623 5621 5620 5619 5617 5617 5617 5615 5614 5613 5613 5612 5610 5610 5609 5609 5608 5606 5605 5603 5603 5603 5603 5602 5602 5601 5600 5598 5597 5599 5600 5601
5617 5619 5619 5618 5617 5617 5616 5614 5613 5611 5610 5610 5609 5608 5606 5606 5605 5605 5603 5603 5602 5602 5601 5600 5598 5597 5596 5597 5594 5595 5594 5594 5594 5592 5591 5592 5594 5595
5611 5612 5611 5610 5610 5609 5608 5607 5605 5604 5602 5602 5601 5600 5599 5599 5598 5597 5596 5595 5595 5594 5593 5592 5591 5590 5589 5590 5590 5585 5586 5586 5586 5586 5585 5586 5587 5589
5604 5604 5603 5602 5601 5600 5599 5598 5597 5596 5594 5593 5593 5593 5592 5591 5590 5590 5589 5587 5587 5586 5585 5584 5583 5583 5582 5582 5582 5581 5577 5579 5579 5578 5579 5580 5581 5579
5598 5597 5596 5595 5593 5592 5591 5590 5590 5589 5587 5586 5586 5585 5585 5583 5582 5582 5582 5578 5577 5578 5577 5576 5575 5572 5574 5573 5574 5574 5573 5569 5569 5569 5570 5572 5573 5574
5591 5590 5588 5587 5586 5585 5584 5583 5583 5582 5580 5579 5579 5578 5577 5576 5575 5574 5575 5573 5571 5571 5570 5569 5568 5567 5567 5566 5567 5568 5566 5564 5562 5560 5559 5561 5564 5566
5585 5584 5583 5581 5580 5579 5578 5576 5575 5574 5573 5572 5571 5570 5569 5568 5568 5568 5567 5566 5565 5564 5563 5562 5562 5561 5560 5560 5560 5560 5559 5558 5558 5557 5557 5554 5554 5554